User: anonymous   Login
Location: Newark
(33.9035°S, 18.4112°E)
Time: 18:40:22
(UTC+00:00)
Language:

STARLINK-1082 - Orbit

View from above orbital plane
View from above orbital plane
View from above satellite
View from above satellite

Ground track
Ground track

The orbit data is extracted from the following two-line orbital elements,

1 44938C 20001AA  20091.53685056 -.00963194  00000-0 -64367-1 0   915
2 44938  53.0023 344.3832 0001467  56.2842 348.2796 15.07459454    19
Epoch (UTC): 31 March 2020 12:53:03
Eccentricity: 0.0001467
inclination: 53.0023°
perigee height: 543 km
apogee height: 545 km
right ascension of ascending node: 344.3832°
argument of perigee: 56.2842°
revolutions per day: 15.07459454
mean anomaly at epoch: 348.2796°
orbit number at epoch: 1

The dashed part of the orbit path shows where the satellite is in the earth's shadow,  

DLR